BREEZE-M R/B, 39494

Orbit data source: Space-Track

BREEZE-M R/B, 39494 is space debris in HEO originally from a launch on Sun, 08 Dec 2013 UTC launched from the Tyuratam Missile And Space Complex (TTMTR). Debris objects in space refer to the collection of defunct objects orbiting the Earth. Examples of debris include non-operational satellites, rocket bodies, and fragments generated from explosions, collisions, or faulty payload assembly.

Loading next visibility...
Identifier
39494, 2013-073C
Orbit
HEO
Country
Flag of CISCIS
Related business
Manufacturer
Khrunichev
Mission
Spacecraft
Bus & Motor
BRIZ, Unknown motor
Mass
~1,600 kg wet, 1,600 kg dry
Launch date (UTC)
2013-12-08 (12 years ago)
Launch vehicle
Unknown
Launch site
Tyuratam Missile And Space Complex (TTMTR)
Object type
Payload
Rocket body
Debris
Shape & HBR
Cyl, 2.0 m
Radar Cross Section
15.006 m², Large (>1 m²)

Expand to show TLE details & history
Last TLE update: 2 days ago

TLE from 2 days ago
0 BREEZE-M R/B
1 39494U 13073C   26105.66876983 -.00000187  00000-0  00000-0 0  9997
2 39494  24.3621 190.0446 7436661 155.6726 274.9135  1.09862368 48587
Epoch: 2026-04-15T16:03Z
TLE epoch observation values (Epoch: 2026-04-15T16:03:01.713Z)
Latitude
0.00035°
Longitude
105.34838°
Altitude
48,819.98 km
Speed
2.097 km/s
True Right ascension
12h 39m 43s
True Declination
0° 00' 01"
Sunlit
Object was in daylight at epoch
Visualization orbit readout
Latitude
Unknown
Longitude
Unknown
Altitude
Unknown
Speed
Unknown
Apparent Right ascension
Unknown
Apparent Declination
Unknown
Sunlit
N/A
Visualization observer readout
Local Sidereal Time
13:41:32
Azimuth
Unknown
Elevation
Unknown
Doppler factor
Unknown
Orbital elements
Apogee altitude
62,804.389 km
Perigee altitude
3,792.289 km
Semi-major axis
39,676.476 km
Eccentricity
0.74367
Inclination
24.3621°
RAAN
190.0446°
Arg. of periapsis
155.6726°
True anomaly
204.26645°
Mean anomaly
274.9135°
Eccentric anomaly
238.56009°
Mean motion
0.27463 °/min
Orbital period
1,310.87 mins
BSTAR
0
Loading maneuver chart data...
Computing Atmospheric mass density...
Loading historical data...
Loading historical data...
Loading historical data...
Loading historical data...
Loading historical data...
Loading historical data...
Loading historical data...
Other satellites on launch #73 in the year 2013 (2013-12-08 UTC)

Documentation

Showing up to 5 results
|